Regional Weather Roundup
Issued by NWS

Home | Current Version | Previous Version | Text Only | Print | Product List | Glossary On
Versions: 1 2 3 4 5 6 7 8 9 10 11 12 13 14 15 16 17 18 19 20 21 22 23 24 25 26 27 28
000
ASUS46 KPQR 311610
RWROR

OREGON REGIONAL WEATHER ROUNDUP
NATIONAL WEATHER SERVICE PORTLAND OR
900 AM PDT TUE MAY 31 2016

NOTE: "FAIR" INDICATES FEW OR NO CLOUDS BELOW 12,000 FEET WITH
NO SIGNIFICANT WEATHER AND/OR OBSTRUCTIONS TO VISIBILITY.

ORZ001>013-311700-
NORTHWEST OREGON


CITY           SKY/WX    TMP DP  RH WIND       PRES   REMARKS
ASTORIA        MOSUNNY   63  52  67 N6        30.06F
NEWPORT        MOSUNNY   57  52  82 N3        30.07F
PORTLAND       PTSUNNY   64  46  52 NW5       30.06F
VANCOUVER WA   SUNNY     64  47  53 NW6       30.06F
SCAPPOOSE      MOSUNNY   65  48  54 VRB3      30.05F
HILLSBORO      SUNNY     65  45  48 CALM      30.05F
AURORA         MOSUNNY   63  46  54 N6        30.06F
MCMINNVILLE    SUNNY     61  47  59 CALM      30.06F
SALEM          SUNNY     64  44  48 N3        30.05F
CORVALLIS        N/A     64  45  48 CALM      30.07S
EUGENE         MOSUNNY   62  46  55 N8        30.06F
$$

ORZ021-028-311700-
SOUTHWEST OREGON


CITY           SKY/WX    TMP DP  RH WIND       PRES   REMARKS
NORTH BEND     MOSUNNY   59  54  82 W8        30.04S
BROOKINGS      SUNNY     64  52  64 CALM      29.94R
ROSEBURG       SUNNY     60  45  57 CALM      30.05F
SEXTON SUMMIT  SUNNY     68  45  43 VRB5      30.09S
MEDFORD        SUNNY     65  48  54 CALM      30.03F
$$

ORZ014>016-041-311700-
COLUMBIA GORGE


CITY           SKY/WX    TMP DP  RH WIND       PRES   REMARKS
TROUTDALE      SUNNY     64  48  56 W5        30.06S
THE DALLES     SUNNY     61  39  44 CALM      30.13F
$$

ORZ029>031-041-044-049-050-061>064-502-503-505>511-311700-
EASTERN OREGON


CITY           SKY/WX    TMP DP  RH WIND       PRES   REMARKS
REDMOND        SUNNY     61  33  35 VRB3      30.16F
BEND           SUNNY     61  32  33 CALM      30.16S
PRINEVILLE     SUNNY     61  36  39 CALM      30.16F
KLAMATH FALLS  SUNNY     64  38  38 NE6       30.15S
LAKEVIEW       SUNNY     63  36  36 N12       30.19S
HERMISTON        N/A     63  40  42 W3        30.13F
PENDLETON      SUNNY     63  36  36 CALM      30.13F
JOHN DAY         N/A    N/A N/A N/A MISG        N/A
MEACHAM        SUNNY     61  26  26 VRB3      30.18S
LA GRANDE      SUNNY     57  34  41 N3        30.18S
BAKER CITY     SUNNY     57  36  45 W7        30.18S
BURNS          SUNNY     59  34  39 CALM      30.18F
ROME             N/A     64  29  26 NE6       30.17S
ONTARIO        SUNNY     66  37  34 E3        30.13F
$$




USA.gov is the U.S. government's official web portal to all federal, state and local government web resources and services.